Temp
55 55 56 57 59 59 59 59 58 58 57 57 57 55 54 54 54 55 58 58 57 56 52 51 50 49 48 48 48 47 47 46
55 55 56 57 56 57 58 58 58 57 54 54 55 54 55 54 53 54 54 54 53 51 50 49 49 48 46 47 46 45 46 44
55 55 55 55 54 56 55 56 56 57 55 53 55 54 53 53 53 51 51 51 51 52 49 47 47 47 45 44 44 44 44 43
54 54 52 53 54 54 56 55 56 55 55 54 52 52 51 50 49 48 48 49 49 49 48 47 46 45 44 42 42 42 40 41
54 53 54 53 52 53 55 56 55 55 54 54 53 50 48 46 46 46 47 48 49 49 48 46 45 44 44 43 43 41 41 37
55 54 54 52 54 53 52 54 55 53 52 51 48 46 45 45 45 46 47 47 48 47 47 46 45 43 42 42 40 39 39 37
52 55 56 54 52 51 51 51 49 49 49 48 47 46 45 46 46 46 46 46 45 46 46 43 42 41 41 40 39 38 37 37
50 53 53 49 48 49 50 48 47 48 48 48 47 48 47 47 46 44 44 45 44 43 42 41 41 41 41 40 39 38 36 35
50 47 47 47 48 48 48 48 47 47 47 47 46 46 45 45 44 44 45 42 41 41 41 41 41 44 41 43 41 37 36 35
47 47 47 47 47 46 46 47 46 46 45 44 44 44 44 43 43 42 41 41 43 40 40 42 42 40 41 40 37 39 36 35
47 47 47 46 46 45 47 46 44 44 43 43 43 42 42 41 39 39 39 40 42 43 44 41 42 41 42 40 37 36 35 33
45 45 45 46 48 48 47 44 44 43 42 42 41 40 40 40 39 38 38 40 41 41 42 42 39 39 38 36 35 34 34 33
45 45 47 47 45 45 43 43 43 42 41 41 40 40 39 38 38 38 38 39 39 40 39 39 38 37 36 34 34 33 32 32
44 44 46 46 44 42 44 45 42 41 40 39 38 38 37 37 37 37 38 37 38 38 38 37 36 36 35 34 33 33 31 31
43 43 44 43 43 45 44 42 41 40 39 38 38 37 37 36 36 36 36 37 37 36 36 36 36 36 35 33 32 31 31 31
43 42 41 44 44 42 42 40 40 40 39 38 38 37 37 37 36 36 36 36 39 36 35 34 34 35 34 32 32 31 30 29
45 44 46 44 42 41 41 40 40 40 38 38 38 38 37 36 35 35 35 38 34 33 33 33 33 35 36 37 35 30 30 29
45 46 44 43 41 41 40 40 40 38 38 38 38 37 36 35 35 34 34 33 33 33 32 32 29 30 35 35 32 28 27 26
44 43 42 41 40 40 39 38 38 37 37 37 37 36 35 34 33 33 33 33 32 30 29 29 29 32 34 32 31 26 26 26
MSLP
1020.37 1020.26 1019.96 1020.20 1020.31 1020.71 1021.35 1021.73 1022.09 1022.85 1023.33 1024.01 1024.27 1023.58 1023.62 1023.56 1023.36 1023.08 1022.82 1022.76 1022.78 1022.97 1023.32 1023.36 1023.35 1023.39 1023.63 1023.63 1023.59 1023.48 1023.42 1023.41
1020.64 1020.80 1020.72 1020.80 1021.29 1021.59 1021.92 1022.29 1023.00 1023.05 1023.46 1023.89 1023.79 1023.96 1024.12 1023.98 1023.96 1023.78 1023.58 1023.58 1023.50 1023.56 1023.66 1023.58 1023.51 1023.81 1024.11 1023.98 1023.86 1023.88 1023.71 1023.55
1021.30 1021.23 1021.20 1021.25 1021.66 1021.91 1022.13 1022.33 1022.58 1022.61 1022.66 1023.13 1023.27 1023.64 1023.89 1024.15 1024.25 1024.27 1024.19 1024.13 1024.06 1023.95 1023.89 1023.87 1023.86 1024.01 1024.18 1024.05 1024.06 1024.26 1024.21 1024.09
1021.56 1021.55 1021.72 1021.62 1021.96 1022.01 1022.11 1022.48 1022.59 1022.81 1022.99 1023.13 1023.39 1023.57 1024.01 1024.40 1024.65 1024.78 1024.71 1024.45 1024.26 1024.03 1023.89 1023.93 1024.01 1023.92 1023.95 1024.03 1023.95 1023.99 1024.40 1024.47
1021.15 1021.60 1021.93 1022.01 1022.19 1022.33 1022.43 1022.54 1022.73 1022.92 1022.93 1023.15 1023.48 1024.13 1024.54 1024.95 1024.92 1024.98 1024.75 1024.42 1024.20 1023.89 1023.79 1023.93 1023.98 1024.16 1024.04 1024.10 1024.18 1024.25 1024.43 1024.85
1021.50 1022.13 1022.74 1022.82 1022.69 1022.71 1022.96 1023.00 1023.27 1023.53 1023.64 1023.86 1024.17 1024.66 1024.95 1025.10 1025.06 1024.82 1024.47 1024.04 1023.92 1024.09 1023.94 1023.89 1023.98 1024.19 1024.16 1024.22 1024.17 1024.34 1024.62 1024.94
1021.92 1022.32 1022.66 1023.21 1023.02 1023.12 1023.19 1023.53 1024.13 1024.10 1024.16 1024.40 1024.66 1025.05 1025.23 1025.15 1024.87 1024.69 1024.57 1024.32 1024.08 1023.92 1023.96 1024.19 1024.48 1024.66 1024.77 1024.85 1024.78 1024.68 1024.80 1024.88
1022.62 1022.91 1022.66 1023.70 1023.66 1023.81 1023.99 1024.31 1024.80 1024.78 1024.78 1024.90 1025.06 1025.14 1025.23 1025.31 1025.34 1025.25 1024.99 1024.45 1024.07 1024.08 1024.35 1024.60 1024.69 1024.85 1024.91 1024.80 1024.81 1025.09 1025.20 1024.80
1023.25 1023.45 1023.22 1023.77 1023.97 1024.39 1024.68 1025.06 1025.49 1025.59 1025.65 1025.76 1025.83 1025.79 1025.80 1025.70 1025.52 1025.11 1024.72 1024.38 1024.01 1023.90 1023.98 1024.11 1024.10 1024.05 1024.18 1024.35 1024.40 1024.68 1024.94 1024.80
1023.81 1023.86 1023.81 1024.04 1024.38 1024.70 1025.04 1025.29 1025.69 1025.94 1026.00 1025.89 1025.91 1025.87 1025.79 1025.70 1025.29 1024.87 1024.37 1023.81 1023.51 1023.75 1024.04 1024.08 1024.14 1024.32 1024.67 1024.74 1024.75 1024.40 1024.47 1024.40
1023.97 1024.10 1024.19 1024.30 1024.53 1024.97 1025.27 1025.52 1025.91 1026.03 1025.97 1025.89 1025.92 1025.89 1025.82 1025.63 1025.19 1024.66 1024.13 1023.82 1023.56 1023.78 1023.91 1024.25 1024.64 1024.31 1023.94 1024.20 1024.29 1024.21 1024.41 1024.58
1024.15 1024.34 1024.51 1024.52 1024.87 1025.13 1025.44 1025.86 1026.07 1026.23 1026.22 1026.17 1026.20 1026.20 1025.91 1025.50 1025.15 1024.68 1024.18 1023.74 1023.56 1023.61 1023.65 1023.91 1024.23 1023.96 1024.05 1024.30 1024.27 1024.25 1024.33 1024.37
1024.28 1024.48 1024.87 1025.25 1025.59 1025.90 1025.77 1026.23 1026.25 1026.29 1026.30 1026.39 1026.41 1026.19 1025.89 1025.61 1025.26 1024.77 1024.23 1023.92 1023.72 1023.56 1023.74 1023.94 1023.88 1023.75 1023.90 1024.08 1024.01 1024.03 1024.17 1024.25
1024.57 1024.86 1025.25 1025.67 1025.66 1025.98 1026.34 1026.39 1026.34 1026.19 1026.33 1026.37 1026.26 1026.09 1025.89 1025.63 1025.26 1024.85 1024.48 1024.36 1024.21 1024.07 1023.78 1023.68 1023.53 1023.60 1023.71 1023.67 1023.71 1023.86 1024.04 1023.94
1024.68 1025.14 1025.49 1025.53 1025.67 1025.85 1026.16 1026.18 1026.13 1026.21 1026.30 1026.30 1026.12 1025.92 1025.73 1025.37 1025.00 1024.80 1024.79 1024.66 1024.25 1023.92 1023.62 1023.42 1023.25 1023.39 1023.57 1023.55 1023.69 1023.77 1023.78 1023.75
1024.65 1025.04 1025.18 1025.29 1025.54 1025.81 1025.95 1025.95 1026.07 1026.09 1026.12 1026.02 1025.80 1025.58 1025.34 1025.14 1025.00 1024.78 1024.54 1024.34 1024.10 1023.77 1023.56 1023.29 1023.29 1023.42 1023.51 1023.58 1023.65 1023.69 1023.78 1023.71
1024.24 1024.55 1024.74 1024.98 1025.41 1025.63 1025.67 1025.81 1025.92 1025.89 1025.89 1025.85 1025.54 1025.33 1025.15 1024.92 1024.76 1024.61 1024.46 1024.14 1023.91 1023.68 1023.58 1023.34 1023.46 1023.61 1023.50 1023.41 1023.48 1023.77 1023.77 1023.69
1023.71 1023.97 1024.31 1024.70 1025.06 1025.24 1025.51 1025.59 1025.62 1025.69 1025.72 1025.46 1025.31 1025.25 1025.05 1024.79 1024.68 1024.44 1024.16 1024.03 1023.85 1023.73 1023.62 1023.89 1023.80 1023.76 1023.63 1023.64 1023.90 1024.02 1024.00 1023.95
1023.32 1023.66 1024.04 1024.44 1024.75 1025.09 1025.31 1025.49 1025.53 1025.57 1025.44 1025.24 1025.07 1024.99 1024.85 1024.67 1024.45 1024.09 1023.85 1023.71 1023.69 1023.69 1023.87 1024.09 1023.91 1023.88 1023.90 1023.96 1023.96 1024.14 1024.18 1024.03
Wind_Speed
6 7 9 9 11 12 10 8 11 9 6 4 2 3 3 4 4 5 6 5 7 5 4 5 4 4 4 3 4 2 1 2
6 6 7 13 10 12 8 10 7 6 2 3 2 1 2 2 3 6 7 6 7 6 4 4 5 5 4 4 3 5 3 5
8 9 10 10 8 9 8 9 8 5 3 3 3 3 2 3 3 5 6 6 6 3 4 5 5 4 5 5 5 2 2 4
8 7 7 8 8 7 8 7 7 4 4 3 2 3 3 3 4 3 4 5 5 5 5 4 4 3 4 3 4 5 3 2
8 6 7 7 6 6 6 6 5 3 3 4 3 2 2 1 1 1 2 3 1 2 4 4 4 2 5 4 3 4 3 3
8 7 6 5 5 5 3 4 6 6 7 7 5 5 2 1 0 1 2 3 2 0 3 5 4 3 4 4 4 5 2 2
7 6 6 4 5 5 7 9 8 8 7 7 7 6 3 1 3 3 4 3 3 3 2 3 4 4 3 2 3 4 3 3
3 3 7 5 7 7 7 8 8 8 9 8 7 4 1 3 6 4 6 5 3 2 3 3 3 2 1 2 3 2 1 2
4 5 7 7 8 8 8 8 7 7 7 6 5 6 3 4 4 5 6 5 4 5 6 5 5 2 2 3 2 2 3 2
7 6 6 7 7 8 8 8 8 7 6 5 6 5 6 5 7 6 5 6 2 2 5 3 3 5 4 4 4 3 3 3
6 5 6 6 7 7 8 7 7 5 6 6 5 6 7 6 6 8 7 4 0 5 3 6 5 4 7 4 4 4 4 2
6 6 6 7 6 7 7 7 7 6 5 4 5 5 6 6 6 7 6 2 2 4 5 5 6 4 5 4 4 4 3 2
6 6 6 6 6 4 7 4 4 2 2 2 3 4 6 6 6 7 5 3 4 5 2 3 5 5 4 5 4 2 3 3
6 6 5 5 6 5 3 3 3 1 1 2 3 4 5 6 6 5 4 4 5 5 5 5 4 5 5 4 4 3 3 5
5 5 6 5 5 5 5 4 3 3 3 4 4 4 5 6 6 6 6 6 6 6 5 5 4 4 5 2 2 4 5 4
7 7 7 7 5 5 5 5 4 3 4 4 5 5 6 6 6 6 6 6 5 6 6 5 4 2 1 3 3 4 5 5
7 8 10 7 7 7 6 6 6 3 4 6 5 6 6 6 6 6 6 6 7 4 4 2 3 3 5 5 5 5 5 5
8 9 9 7 7 6 6 5 4 4 5 6 6 6 6 6 6 6 6 6 5 3 4 3 5 4 10 10 9 5 5 5
7 7 7 7 3 4 4 5 5 5 6 6 6 6 6 6 6 6 6 4 5 2 4 2 4 4 8 8 8 4 5 6
Wind_Direction
16 31 65 72 88 90 81 74 75 82 111 132 230 48 33 9 10 37 45 43 46 64 65 59 62 66 46 40 46 7 55 324
63 57 80 87 72 89 102 109 132 141 130 152 118 100 13 39 47 43 39 33 38 41 47 48 46 56 51 31 9 17 359 344
64 79 87 96 123 129 134 137 161 165 143 172 153 166 177 88 62 43 34 35 29 55 61 51 52 72 52 57 66 18 4 28
99 93 107 119 118 122 109 118 131 125 129 124 97 68 62 47 23 18 13 26 27 39 55 81 88 118 112 89 80 76 74 357
110 100 88 102 99 84 110 121 119 102 69 64 69 76 89 133 146 17 45 54 42 166 147 134 117 78 84 100 87 86 106 51
131 97 67 49 74 95 105 82 56 48 49 52 66 69 65 74 165 267 228 254 262 124 160 141 131 139 108 103 93 75 76 120
93 98 77 26 40 54 52 59 33 47 69 72 83 96 120 120 274 294 329 312 268 229 204 127 106 82 64 45 65 89 97 102
100 100 94 87 65 59 69 77 60 50 54 53 59 92 153 301 325 320 312 318 314 234 110 109 80 69 27 44 49 51 90 120
129 131 100 90 78 73 76 76 73 54 52 40 26 17 358 326 314 307 304 285 276 163 156 151 128 145 221 228 199 195 203 216
139 120 102 96 88 83 90 78 60 48 46 50 42 27 12 336 321 308 284 281 255 166 105 108 350 10 339 308 266 267 258 243
137 114 102 94 91 97 97 98 94 73 54 42 30 8 359 339 319 314 313 317 169 141 132 35 2 230 238 239 246 255 272 305
130 96 77 86 92 95 102 73 65 55 50 35 18 345 336 338 335 320 311 273 150 137 143 163 242 290 292 268 272 288 268 243
120 115 109 91 101 85 80 96 104 114 70 12 317 320 335 335 319 297 274 187 172 191 219 260 282 276 272 253 271 258 223 247
126 130 130 131 109 108 152 190 181 167 238 269 298 317 325 312 308 301 291 305 329 307 267 266 303 278 259 240 224 212 226 242
159 152 154 144 161 181 210 226 229 233 238 258 301 313 304 305 315 310 298 294 296 297 296 293 285 283 274 232 185 230 259 281
182 171 176 193 192 211 230 245 245 239 259 284 295 302 315 318 308 301 303 287 287 293 300 316 333 303 232 228 250 301 306 306
184 185 198 196 205 217 233 248 255 245 269 287 300 325 309 301 313 310 301 303 306 331 334 332 53 33 5 358 345 326 316 319
182 196 201 203 211 214 242 263 280 274 275 290 294 300 297 307 304 296 289 285 281 320 45 45 72 43 38 31 33 21 1 342
199 205 209 216 216 235 275 287 277 270 276 278 286 290 291 292 285 286 287 277 302 13 104 106 85 48 34 30 5 3 345 322